time_stamp(utc),avg(mph),gust(mph),direction(deg),12m_air_temp(f),sonic_u(cm/s),sonic_v(cm/s),sonic_w(cm/s),pressure,2m_air_temp(f),pyranometer(W/m^2)
"2016-11-17 00:02:20+00",6.7,7.7,,53.2,-293,21,17,1010.48,52.2,0
"2016-11-17 00:07:20+00",8.2,9.2,,53,-342,-116,15,1010.52,51.9,0
"2016-11-17 00:12:20+00",7.2,8.2,,52.7,-312,-10,15,1010.55,51.8,0
"2016-11-17 00:17:20+00",7.4,8.4,,52.4,-321,68,17,1010.54,51.6,0
"2016-11-17 00:22:20+00",7.6,7.6,,52.3,-281,181,15,1010.53,51.5,0
"2016-11-17 00:27:20+00",8.3,9.3,,52.3,-328,140,23,1010.67,51.5,0
"2016-11-17 00:32:20+00",8.1,9.1,,52,-356,67,14,1010.58,51.5,0
"2016-11-17 00:37:20+00",7.8,8.8,,52,-332,82,18,1010.63,51.4,0
"2016-11-17 00:42:20+00",9.1,10.1,,52.1,-394,115,28,1010.68,51.4,0
"2016-11-17 00:47:20+00",10.8,11.8,,52.3,-451,195,24,1010.77,51.4,0
"2016-11-17 00:52:20+00",10.6,12.6,,51.9,-431,183,25,1010.83,51.4,0
"2016-11-17 00:57:20+00",10.1,12.1,,51.8,-439,127,22,1010.89,51.2,0
"2016-11-17 01:02:20+00",10.8,12.8,,51.7,-466,124,21,1010.91,51.1,0
"2016-11-17 01:07:20+00",10.5,12.5,,51.7,-450,138,32,1010.91,51.1,0
"2016-11-17 01:12:20+00",10.7,11.7,,51.6,-463,144,27,1010.95,51.1,0
"2016-11-17 01:17:20+00",10.3,11.3,,51.5,-446,109,21,1010.98,51.1,0
"2016-11-17 01:22:20+00",8.3,9.3,,51.4,-346,113,27,1011.09,51,0
"2016-11-17 01:27:20+00",7.3,8.3,,51.2,-308,87,5,1011.16,51,0
"2016-11-17 01:32:20+00",5.9,6.9,,51.3,-253,63,20,1011.19,50.9,0
"2016-11-17 01:37:20+00",6.1,7.1,,51.2,-256,45,12,1011.24,50.9,0
"2016-11-17 01:42:20+00",6.9,7.9,,51.2,-293,48,18,1011.21,50.8,0
"2016-11-17 01:47:20+00",6.7,7.7,,51.2,-294,17,9,1011.16,50.7,0
"2016-11-17 01:52:20+00",7.0,8.0,,51.2,-302,13,5,1011.16,50.6,0
"2016-11-17 01:57:20+00",7.6,8.6,,51.4,-335,26,17,1011.21,50.6,0
"2016-11-17 02:02:20+00",8.1,9.1,,51.5,-353,5,11,1011.23,50.6,0
"2016-11-17 02:07:20+00",7.6,8.6,,51.8,-311,-49,8,1011.17,50.7,0
"2016-11-17 02:12:20+00",7.8,9.8,,51.9,-329,-98,6,1011.22,50.8,0
"2016-11-17 02:17:20+00",6.9,7.9,,51.9,-279,-148,8,1011.3,50.8,0
"2016-11-17 02:22:20+00",7.4,8.4,,51.8,-273,-168,5,1011.45,50.7,0
"2016-11-17 02:27:20+00",8.4,8.4,,51.7,-312,-190,7,1011.47,50.6,0
"2016-11-17 02:32:20+00",8.0,9.0,,51.9,-292,-189,6,1011.56,50.5,0
"2016-11-17 02:37:20+00",7.6,8.6,,52,-302,-165,5,1011.5,50.4,0
"2016-11-17 02:42:20+00",7.1,8.1,,52,-290,-147,2,1011.51,50.4,0
"2016-11-17 02:47:20+00",6.8,7.8,,52,-295,-123,11,1011.49,50.3,0
"2016-11-17 02:52:20+00",7.1,8.1,,51.9,-301,-110,10,1011.43,50.3,0
"2016-11-17 02:57:20+00",7.6,8.6,,51.9,-311,-76,13,1011.59,50.3,0
"2016-11-17 03:02:20+00",8.5,9.5,,52,-345,-71,14,1011.55,50.4,0
"2016-11-17 03:07:20+00",8.3,9.3,,51.9,-348,-90,8,1011.67,50.6,0
"2016-11-17 03:12:20+00",9.2,11.2,,51.8,-386,-64,18,1011.72,50.7,0
"2016-11-17 03:17:20+00",10.0,13.0,,51.9,-433,-19,5,1011.8,50.8,0
"2016-11-17 03:22:20+00",10.5,12.5,,52.2,-464,58,23,1011.78,51.1,0
"2016-11-17 03:27:20+00",10.5,12.5,,52.1,-452,65,24,1011.9,51.2,0
"2016-11-17 03:32:20+00",12.9,14.9,,52.4,-541,194,19,1011.86,51.4,0
"2016-11-17 03:37:20+00",10.8,12.8,,52.3,-469,117,28,1011.9,51.5,0
"2016-11-17 03:42:20+00",10.7,12.7,,52.2,-439,178,29,1012.02,51.5,0
"2016-11-17 03:47:20+00",11.4,13.4,,51.9,-473,208,39,1012.07,51.5,0
"2016-11-17 03:52:20+00",12.1,13.1,,51.5,-484,261,32,1012.11,51.2,0
"2016-11-17 03:57:20+00",14.0,17.0,,51.2,-550,300,23,1012.15,50.8,0
"2016-11-17 04:02:20+00",12.2,14.2,,51,-468,280,31,1012.2,50.4,0
"2016-11-17 04:07:20+00",11.9,13.9,,50.9,-446,287,35,1012.31,50.2,0
"2016-11-17 04:12:20+00",10.7,11.7,,50.7,-390,260,34,1012.33,50,0
"2016-11-17 04:17:20+00",11.2,13.2,,50.7,-425,281,40,1012.27,50,0
"2016-11-17 04:22:20+00",10.3,12.3,,50.7,-400,233,29,1012.34,50,0
"2016-11-17 04:27:20+00",9.6,10.6,,50.6,-359,231,26,1012.44,49.9,0
"2016-11-17 04:32:20+00",9.8,10.8,,50.6,-372,239,25,1012.38,49.9,0
"2016-11-17 04:37:20+00",11.7,12.7,,50.6,-426,299,29,1012.47,49.9,0
"2016-11-17 04:42:20+00",9.8,10.8,,50.4,-383,220,34,1012.48,49.9,0
"2016-11-17 04:47:20+00",8.7,10.7,,50.4,-315,237,19,1012.46,49.8,0
"2016-11-17 04:52:20+00",9.0,11.0,,50.4,-334,232,26,1012.43,49.8,0
"2016-11-17 04:57:20+00",8.4,9.4,,50.4,-315,190,23,1012.4,49.8,0
"2016-11-17 05:02:20+00",9.0,10.0,,50.5,-343,216,24,1012.49,49.8,0
"2016-11-17 05:07:20+00",8.7,9.7,,50.5,-312,221,18,1012.5,49.9,0
"2016-11-17 05:12:20+00",8.4,9.4,,50.5,-308,203,24,1012.5,49.9,0
"2016-11-17 05:17:20+00",8.8,10.8,,50.5,-314,225,36,1012.47,49.9,0
"2016-11-17 05:22:20+00",10.4,11.4,,50.4,-382,261,28,1012.5,49.9,0
"2016-11-17 05:27:20+00",9.2,11.2,,50.2,-328,234,34,1012.51,49.8,0
"2016-11-17 05:32:20+00",10.7,10.7,,50.2,-396,268,31,1012.62,49.7,0
"2016-11-17 05:37:20+00",10.8,11.8,,50,-416,261,26,1012.6,49.6,0
"2016-11-17 05:42:20+00",11.0,13.0,,50.1,-410,271,28,1012.56,49.5,0
"2016-11-17 05:47:20+00",11.4,12.4,,50.3,-425,278,27,1012.58,49.6,0
"2016-11-17 05:52:20+00",12.1,13.1,,50.4,-446,313,25,1012.64,49.7,0
"2016-11-17 05:57:20+00",11.3,12.3,,50.4,-410,311,31,1012.6,49.8,0
"2016-11-17 06:02:20+00",11.0,13.0,,50.4,-406,283,43,1012.77,49.9,0
"2016-11-17 06:07:20+00",11.3,12.3,,50.5,-415,286,34,1012.72,49.9,0
"2016-11-17 06:12:20+00",12.2,14.2,,50.6,-449,325,31,1012.83,49.9,0
"2016-11-17 06:17:20+00",13.6,15.6,,50.6,-489,367,28,1012.86,50,0
"2016-11-17 06:22:20+00",11.0,14.0,,50.4,-418,304,38,1012.9,50,0
"2016-11-17 06:27:20+00",10.9,12.9,,50.2,-383,305,31,1012.82,49.9,0
"2016-11-17 06:32:20+00",10.5,12.5,,50.1,-359,313,29,1012.91,49.8,0
"2016-11-17 06:37:20+00",11.8,12.8,,50.1,-410,338,31,1012.95,49.8,0
"2016-11-17 06:42:20+00",10.5,11.5,,50.1,-349,307,24,1013.04,49.8,0
"2016-11-17 06:47:20+00",11.3,13.3,,50.1,-370,350,31,1013.07,49.7,0
"2016-11-17 06:52:20+00",10.2,11.2,,50.1,-335,315,32,1013.08,49.7,0
"2016-11-17 06:57:20+00",10.3,11.3,,50.2,-349,302,29,1013.12,49.7,0
"2016-11-17 07:02:20+00",10.5,11.5,,50.2,-369,286,32,1013.18,49.7,0
"2016-11-17 07:07:20+00",10.5,12.5,,50.2,-375,275,32,1013.24,49.7,0
"2016-11-17 07:12:20+00",11.3,12.3,,50.2,-418,302,31,1013.21,49.7,0
"2016-11-17 07:17:20+00",10.8,11.8,,50.1,-393,292,26,1013.27,49.7,0
"2016-11-17 07:22:20+00",11.0,12.0,,50,-405,274,26,1013.26,49.6,0
"2016-11-17 07:27:20+00",10.1,12.1,,49.9,-358,262,35,1013.31,49.5,0
"2016-11-17 07:33:46+00",10.3,12.3,,49.9,-368,287,33,1013.28,49.4,0
"2016-11-17 07:38:46+00",11.0,13.0,,49.9,-384,294,29,1013.32,49.4,0
"2016-11-17 07:43:46+00",10.4,11.4,,49.8,-361,298,24,1013.29,49.3,0
"2016-11-17 07:48:46+00",9.8,10.8,,49.8,-344,269,23,1013.36,49.3,0
"2016-11-17 07:53:46+00",8.8,9.8,,49.8,-299,245,22,1013.34,49.2,0
"2016-11-17 07:58:46+00",8.0,10.0,,49.8,-266,224,28,1013.31,49.2,0
"2016-11-17 08:03:46+00",9.1,10.1,,49.9,-288,275,29,1013.35,49.2,0
"2016-11-17 08:08:46+00",9.3,10.3,,50.1,-318,257,26,1013.46,49.3,0
"2016-11-17 08:13:46+00",10.7,11.7,,50,-425,232,20,1013.49,49.4,0
"2016-11-17 08:18:46+00",9.7,10.7,,49.8,-386,200,22,1013.55,49.3,0
"2016-11-17 08:23:46+00",11.3,12.3,,49.6,-421,278,23,1013.54,49.2,0
"2016-11-17 08:28:46+00",10.7,11.7,,49.7,-397,285,32,1013.63,49,0
"2016-11-17 08:33:46+00",9.3,10.3,,49.6,-316,267,26,1013.62,49,0
"2016-11-17 08:38:46+00",9.1,10.1,,49.6,-323,262,28,1013.65,49.1,0
"2016-11-17 08:43:46+00",9.7,10.7,,49.7,-329,282,33,1013.62,49.1,0
"2016-11-17 08:48:46+00",9.7,12.7,,49.7,-367,257,42,1013.68,49.2,0
"2016-11-17 08:53:46+00",10.7,12.7,,49.7,-398,255,30,1013.73,49.1,0
"2016-11-17 08:58:46+00",10.8,12.8,,49.5,-396,299,27,1013.79,49,0
"2016-11-17 09:03:46+00",11.5,12.5,,49.5,-394,323,28,1013.73,48.9,0
"2016-11-17 09:08:46+00",10.9,12.9,,49.4,-380,326,29,1013.81,48.9,0
"2016-11-17 09:13:46+00",10.4,11.4,,49.3,-383,269,28,1013.87,48.9,0
"2016-11-17 09:18:46+00",11.5,13.5,,49.2,-429,271,25,1013.98,48.8,0
"2016-11-17 09:23:46+00",9.1,10.1,,49.1,-362,191,26,1014.09,48.8,0
"2016-11-17 09:28:46+00",8.3,10.3,,48.9,-304,178,27,1014.11,48.7,0
"2016-11-17 09:33:46+00",8.8,9.8,,48.8,-326,218,19,1014.09,48.6,0
"2016-11-17 09:38:46+00",9.1,10.1,,48.9,-312,240,29,1014.19,48.6,0
"2016-11-17 09:43:46+00",9.8,11.8,,49,-336,265,39,1014.14,48.6,0
"2016-11-17 09:48:46+00",9.7,10.7,,49,-337,266,25,1014.12,48.6,0
"2016-11-17 09:53:46+00",9.5,11.5,,49,-349,241,30,1014.11,48.6,0
"2016-11-17 09:58:46+00",9.3,11.3,,48.9,-342,230,32,1014.17,48.6,0
"2016-11-17 10:03:46+00",9.9,11.9,,49,-354,278,25,1014.18,48.5,0
"2016-11-17 10:08:46+00",9.6,10.6,,49,-313,281,25,1014.25,48.4,0
"2016-11-17 10:13:46+00",9.5,11.5,,48.9,-312,290,31,1014.24,48.4,0
"2016-11-17 10:18:46+00",10.0,11.0,,48.9,-324,293,32,1014.22,48.3,0
"2016-11-17 10:23:46+00",10.1,11.1,,48.9,-335,302,26,1014.16,48.2,0
"2016-11-17 10:28:46+00",10.1,11.1,,49,-325,305,21,1014.34,48.1,0
"2016-11-17 10:33:46+00",8.6,9.6,,49,-265,281,25,1014.29,48,0
"2016-11-17 10:38:46+00",8.4,10.4,,49,-268,258,24,1014.46,48,0
"2016-11-17 10:43:46+00",9.5,10.5,,49.2,-313,275,32,1014.42,48,0
"2016-11-17 10:48:46+00",10.1,12.1,,49.4,-351,270,26,1014.45,48.2,0
"2016-11-17 10:53:46+00",11.3,12.3,,49.5,-425,269,29,1014.49,48.2,0
"2016-11-17 10:58:46+00",12.0,14.0,,49.2,-483,251,19,1014.61,48.2,0
"2016-11-17 11:03:46+00",12.1,13.1,,48.9,-468,254,29,1014.67,48.1,0
"2016-11-17 11:08:46+00",10.8,12.8,,48.7,-433,224,29,1014.75,48.1,0
"2016-11-17 11:13:46+00",9.9,10.9,,48.4,-383,220,24,1014.77,47.8,0
"2016-11-17 11:18:46+00",9.7,11.7,,48.4,-331,268,22,1014.85,47.7,0
"2016-11-17 11:23:46+00",8.6,9.6,,48.3,-287,248,36,1014.87,47.7,0
"2016-11-17 11:28:46+00",10.1,12.1,,48.1,-326,296,27,1014.87,47.5,0
"2016-11-17 11:33:46+00",11.3,12.3,,48,-373,331,37,1014.98,47.5,0
"2016-11-17 11:38:46+00",10.9,12.9,,47.9,-370,316,46,1015.09,47.4,0
"2016-11-17 11:43:46+00",11.9,12.9,,47.9,-405,345,27,1015.17,47.3,0
"2016-11-17 11:48:46+00",11.6,13.6,,47.9,-370,351,23,1015.18,47.4,0
"2016-11-17 11:53:46+00",12.4,13.4,,47.7,-414,359,43,1015.22,47.3,0
"2016-11-17 11:58:46+00",11.3,13.3,,47.5,-350,361,30,1015.38,47.3,0
"2016-11-17 12:03:46+00",10.7,11.7,,47.6,-332,342,32,1015.38,47.3,0
"2016-11-17 12:08:46+00",12.2,14.2,,47.7,-415,364,40,1015.47,47.4,0
"2016-11-17 12:13:46+00",11.0,13.0,,47.8,-381,297,58,1015.49,47.6,0
"2016-11-17 12:18:46+00",12.6,14.6,,48.1,-438,349,35,1015.5,47.7,10.3
"2016-11-17 12:23:46+00",12.8,14.8,,48.5,-439,356,34,1015.59,48.1,19.6
"2016-11-17 12:28:46+00",11.3,14.3,,48.7,-406,284,31,1015.6,48.4,5.6
"2016-11-17 12:33:46+00",11.9,13.9,,48.6,-410,326,29,1015.72,48.4,0
"2016-11-17 12:38:46+00",10.8,11.8,,48.6,-338,327,25,1015.8,48.4,0.5
"2016-11-17 12:43:46+00",10.9,12.9,,48.6,-363,335,47,1015.99,48.3,0.4
"2016-11-17 12:48:46+00",10.3,11.3,,48.6,-326,328,27,1015.96,48.3,0.4
"2016-11-17 12:53:46+00",10.7,11.7,,48.4,-328,348,33,1015.88,48.1,0
"2016-11-17 12:58:46+00",11.0,13.0,,48.5,-364,341,39,1016.17,48.4,71.2
"2016-11-17 13:03:46+00",11.6,12.6,,48.8,-366,354,39,1016.13,48.9,81.4
"2016-11-17 13:08:46+00",10.7,12.7,,49,-334,347,44,1016.28,49.4,88
"2016-11-17 13:13:46+00",11.3,12.3,,49.2,-356,353,36,1016.18,49.7,100
"2016-11-17 13:18:46+00",11.4,13.4,,49.4,-370,353,44,1016.33,50,106.3
"2016-11-17 13:23:46+00",10.7,11.7,,49.5,-343,331,39,1016.31,50.3,113.6
"2016-11-17 13:28:46+00",12.2,14.2,,50,-389,393,36,1016.3,50.6,123.4
"2016-11-17 13:33:46+00",12.2,13.2,,50.3,-399,374,40,1016.19,51,130.4
"2016-11-17 13:38:46+00",12.7,14.7,,50.5,-370,422,39,1016.18,51.2,140.2
"2016-11-17 13:43:46+00",12.5,13.5,,50.7,-397,381,30,1016.2,51.5,153.1
"2016-11-17 13:48:46+00",12.0,14.0,,51,-385,362,32,1016.22,51.8,157.9
"2016-11-17 13:53:46+00",13.9,14.9,,51.1,-455,418,32,1016.15,52,165
"2016-11-17 13:58:46+00",13.5,15.5,,51.3,-472,370,38,1016.25,52.2,171.2
"2016-11-17 14:03:46+00",13.4,14.4,,51.5,-440,409,38,1016.1,52.3,177.3
"2016-11-17 14:08:46+00",11.7,13.7,,51.8,-368,372,41,1016.14,52.7,184.2
"2016-11-17 14:13:46+00",9.2,10.2,,52,-312,277,53,1016.12,53,193.7
"2016-11-17 14:18:46+00",9.4,11.4,,52.2,-287,296,39,1016.23,53.3,198.9
"2016-11-17 14:23:46+00",10.8,11.8,,52.4,-340,341,24,1016.18,53.5,195.9
"2016-11-17 14:28:46+00",9.9,11.9,,52.8,-297,330,31,1016.18,53.9,211.7
"2016-11-17 14:33:46+00",8.8,9.8,,52.9,-292,258,41,1016.22,54.3,216.2
"2016-11-17 14:38:46+00",9.2,10.2,,53.4,-278,301,40,1016.24,54.6,221.6
"2016-11-17 14:43:46+00",11.4,14.4,,53.7,-269,423,42,1016.2,54.9,226.8
"2016-11-17 14:48:46+00",11.5,12.5,,54.1,-296,412,20,1016.14,55.3,232.5
"2016-11-17 14:53:46+00",12.8,16.8,,54.2,-347,445,51,1016.22,55.6,235.8
"2016-11-17 14:58:46+00",12.5,14.5,,54.4,-335,436,14,1016.19,56,237.8
"2016-11-17 15:03:46+00",11.1,12.1,,54.7,-264,413,25,1016.23,56.3,244.5
"2016-11-17 15:08:46+00",11.4,14.4,,54.8,-146,471,42,1016.12,56.7,246.6
"2016-11-17 15:13:46+00",12.5,15.5,,54.9,-229,507,33,1016.12,57,254.5
"2016-11-17 15:18:46+00",11.1,12.1,,55.1,-121,470,26,1016.1,57.4,255.1
"2016-11-17 15:23:46+00",15.4,17.4,,55.3,-129,661,29,1016.09,57.7,257.4
"2016-11-17 15:28:46+00",15.0,16.0,,55.3,-135,651,13,1016.03,57.7,260.8
"2016-11-17 15:33:46+00",14.6,20.6,,55.4,-129,625,30,1015.94,57.8,265.3
"2016-11-17 15:38:46+00",14.2,17.2,,55.4,-82,620,14,1015.92,57.8,267.7
"2016-11-17 15:43:46+00",16.4,19.4,,55.5,-266,669,30,1015.94,58.1,272.9
"2016-11-17 15:48:46+00",15.9,18.9,,55.4,-255,661,45,1015.85,57.9,273.7
"2016-11-17 15:53:46+00",13.8,16.8,,55.4,-198,573,51,1015.66,57.8,273.5
"2016-11-17 15:58:46+00",14.9,17.9,,55.6,-203,629,56,1015.67,58,269.2
"2016-11-17 16:03:46+00",15.4,18.4,,55.8,-55,669,12,1015.68,58.1,280.9
"2016-11-17 16:08:46+00",13.9,15.9,,56,-43,611,24,1015.64,58.5,282.8
"2016-11-17 16:13:46+00",17.3,20.3,,55.9,-150,746,22,1015.63,58.4,283.6
"2016-11-17 16:18:46+00",17.3,19.3,,55.9,-172,736,18,1015.63,58.3,284.4
"2016-11-17 16:23:46+00",15.6,17.6,,56.1,-138,680,23,1015.63,58.4,283.2
"2016-11-17 16:28:46+00",12.7,14.7,,56.3,-178,526,49,1015.54,58.7,283.5
"2016-11-17 16:33:46+00",16.3,18.3,,56.3,-141,692,25,1015.36,58.9,286.1
"2016-11-17 16:38:46+00",14.2,16.2,,56.5,-93,614,9,1015.43,59,287.2
"2016-11-17 16:43:46+00",14.7,16.7,,56.5,-127,628,15,1015.33,59,286.6
"2016-11-17 16:48:46+00",11.4,14.4,,56.8,-193,470,44,1015.4,59.2,286.1
"2016-11-17 16:53:46+00",14.2,16.2,,56.6,-227,582,20,1015.24,59.5,286.5
"2016-11-17 16:58:46+00",10.6,12.6,,56.9,-85,457,9,1015.19,59.8,283.7
"2016-11-17 17:03:46+00",11.3,14.3,,57.1,-104,489,22,1015.15,59.9,285.3
"2016-11-17 17:08:46+00",10.0,12.0,,57.3,-98,422,-2,1015.04,60.2,283.5
"2016-11-17 17:13:46+00",10.5,11.5,,57.3,-65,455,12,1015.03,60.4,281
"2016-11-17 17:18:46+00",11.3,13.3,,57.4,-41,494,3,1014.99,60.6,279.7
"2016-11-17 17:23:46+00",9.7,11.7,,57.7,-6,420,18,1014.79,60.7,280.6
"2016-11-17 17:28:46+00",10.2,11.2,,57.7,118,417,3,1014.68,60.6,279.8
"2016-11-17 17:33:46+00",11.8,15.8,,57.7,-94,505,15,1014.69,60.9,273.9
"2016-11-17 17:38:46+00",7.2,9.2,,58,-86,297,35,1014.51,61.1,271.3
"2016-11-17 17:43:46+00",9.2,11.2,,58,-112,383,18,1014.61,61.2,269.7
"2016-11-17 17:48:46+00",10.4,11.4,,57.9,-205,407,9,1014.54,61.4,265.5
"2016-11-17 17:53:46+00",10.4,11.4,,58.1,48,437,4,1014.52,61,265.2
"2016-11-17 17:58:46+00",9.1,10.1,,58.1,-191,349,12,1014.52,61,252.8
"2016-11-17 18:03:46+00",11.6,13.6,,58.2,-152,487,34,1014.5,61.2,252.9
"2016-11-17 18:08:46+00",9.6,11.6,,58.5,-155,385,31,1014.44,61.3,254.5
"2016-11-17 18:13:46+00",8.6,9.6,,58.4,-269,278,29,1014.43,61.3,251.4
"2016-11-17 18:18:46+00",9.3,11.3,,58.5,-176,364,21,1014.46,61.3,249.8
"2016-11-17 18:23:46+00",11.9,13.9,,58.6,-358,398,31,1014.34,61.2,253.4
"2016-11-17 18:28:46+00",10.0,11.0,,58.1,-341,274,12,1014.34,60.3,207.4
"2016-11-17 18:33:46+00",9.8,11.8,,57.9,-339,260,8,1014.26,59.7,246.6
"2016-11-17 18:38:46+00",10.8,11.8,,58.3,-358,322,29,1014.24,59.8,240.8
"2016-11-17 18:43:46+00",11.8,12.8,,58.2,-408,334,33,1014.29,59.8,232.2
"2016-11-17 18:48:46+00",12.2,14.2,,58.3,-475,298,36,1014.27,59.7,228
"2016-11-17 18:53:46+00",14.2,16.2,,58.1,-519,365,38,1014.32,59.5,224.3
"2016-11-17 18:58:46+00",11.7,12.7,,58.1,-436,304,36,1014.28,59.6,217.3
"2016-11-17 19:03:46+00",14.5,17.5,,58.2,-556,339,30,1014.23,59.6,205.5
"2016-11-17 19:08:46+00",15.1,17.1,,58.3,-554,393,32,1014.24,59.5,203.6
"2016-11-17 19:13:46+00",13.1,15.1,,58.2,-489,338,32,1014.37,59.3,195.9
"2016-11-17 19:18:46+00",13.6,14.6,,58.3,-463,391,43,1014.45,59.3,188.2
"2016-11-17 19:23:46+00",10.7,11.7,,58.2,-323,348,34,1014.54,59.3,181.5
"2016-11-17 19:28:46+00",12.6,13.6,,58.3,-451,343,34,1014.34,59.4,170.7
"2016-11-17 19:33:46+00",12.0,13.0,,58.4,-451,293,26,1014.23,59.5,164.8
"2016-11-17 19:38:46+00",10.6,12.6,,58.5,-375,290,43,1014.3,59.6,160.9
"2016-11-17 19:43:46+00",12.5,13.5,,58.8,-399,397,34,1014.3,60,148.4
"2016-11-17 19:48:46+00",14.3,16.3,,58.5,-463,467,49,1014.46,59.6,137.8
"2016-11-17 19:53:46+00",10.7,12.7,,58.4,-287,377,51,1014.68,59.3,127.2
"2016-11-17 19:58:46+00",10.8,11.8,,58.8,-348,323,34,1014.69,59.7,119
"2016-11-17 20:03:46+00",12.4,14.4,,58.6,-431,366,36,1014.6,59.5,110.2
"2016-11-17 20:08:46+00",13.1,15.1,,58.5,-428,404,42,1014.59,59.2,104.1
"2016-11-17 20:13:46+00",14.0,16.0,,58.7,-409,455,37,1014.7,59.1,93.7
"2016-11-17 20:18:46+00",12.2,13.2,,58.6,-431,335,26,1014.72,59.2,88.3
"2016-11-17 20:23:46+00",13.1,15.1,,58.5,-444,368,51,1014.66,59,82.2
"2016-11-17 20:28:46+00",13.8,15.8,,58.6,-489,398,50,1014.71,58.9,70.8
"2016-11-17 20:33:46+00",13.9,15.9,,58.7,-438,440,42,1014.71,58.7,63.8
"2016-11-17 20:38:46+00",14.5,15.5,,58.5,-477,442,38,1014.81,58.6,53.5
"2016-11-17 20:43:46+00",14.3,16.3,,58.6,-460,455,34,1014.89,58.4,44.3
"2016-11-17 20:48:46+00",14.0,16.0,,58.9,-443,440,41,1015.07,58.2,34.6
"2016-11-17 20:53:46+00",12.6,13.6,,58.4,-436,368,27,1015.15,58,24.6
"2016-11-17 20:58:46+00",11.1,12.1,,57.8,-352,343,27,1015.3,57.4,0
"2016-11-17 21:03:46+00",10.5,11.5,,57.6,-357,286,20,1015.35,57.1,0
"2016-11-17 21:08:46+00",11.0,12.0,,57.7,-363,332,26,1015.53,56.8,0
"2016-11-17 21:13:46+00",13.1,15.1,,58.1,-407,433,38,1015.54,57,0
"2016-11-17 21:18:46+00",12.8,13.8,,58,-398,401,42,1015.61,56.8,0
"2016-11-17 21:23:46+00",12.5,14.5,,57.8,-388,404,33,1015.49,56.5,0
"2016-11-17 21:28:46+00",12.4,13.4,,57.6,-374,405,31,1015.58,56.3,0
"2016-11-17 21:33:46+00",10.6,12.6,,57.2,-339,339,27,1015.64,55.8,0
"2016-11-17 21:38:46+00",9.5,10.5,,57.2,-279,317,25,1015.69,55.5,0
"2016-11-17 21:43:46+00",7.4,8.4,,56.5,-243,218,19,1015.81,55,0
"2016-11-17 21:48:46+00",8.0,9.0,,56.2,-253,243,19,1015.78,54.5,0
"2016-11-17 21:53:46+00",8.1,9.1,,56.6,-270,238,22,1015.78,54,0
"2016-11-17 21:58:46+00",8.0,8.0,,56.7,-268,226,19,1015.86,53.6,0
"2016-11-17 22:03:46+00",8.2,8.2,,56.5,-284,221,17,1015.89,53.3,0
"2016-11-17 22:08:46+00",8.6,8.6,,56.4,-301,230,18,1015.91,53,0
"2016-11-17 22:13:46+00",8.1,8.1,,56,-274,227,16,1015.92,52.7,0
"2016-11-17 22:18:46+00",8.5,9.5,,55.9,-297,232,16,1015.99,52.5,0
"2016-11-17 22:23:46+00",7.7,8.7,,55.1,-298,168,11,1016.06,52.2,0
"2016-11-17 22:28:46+00",7.5,7.5,,54.6,-304,132,16,1016.15,51.9,0
"2016-11-17 22:33:46+00",8.0,8.0,,54.3,-340,113,13,1016.18,51.6,0
"2016-11-17 22:38:46+00",8.3,9.3,,54.6,-334,159,20,1016.26,51.2,0
"2016-11-17 22:43:46+00",7.3,8.3,,54.6,-296,116,10,1016.28,51,0
"2016-11-17 22:48:46+00",7.1,7.1,,54.7,-285,133,13,1016.28,50.7,0
"2016-11-17 22:53:46+00",8.4,8.4,,55.1,-326,178,18,1016.36,50.5,0
"2016-11-17 22:58:46+00",8.2,8.2,,55.1,-323,177,22,1016.36,50.4,0
"2016-11-17 23:03:46+00",8.9,8.9,,54.7,-362,175,24,1016.43,50.3,0
"2016-11-17 23:08:46+00",8.8,8.8,,54.4,-350,181,25,1016.49,50.2,0
"2016-11-17 23:13:46+00",8.3,9.3,,54.1,-330,169,24,1016.47,50.1,0
"2016-11-17 23:18:46+00",7.5,7.5,,53.8,-297,145,16,1016.48,50.1,0
"2016-11-17 23:23:46+00",7.4,8.4,,53.4,-296,144,17,1016.54,49.9,0
"2016-11-17 23:28:46+00",8.3,9.3,,53.4,-355,108,17,1016.4,49.7,0
"2016-11-17 23:33:46+00",8.5,8.5,,53.1,-367,100,16,1016.49,49.5,0
"2016-11-17 23:38:46+00",7.5,8.5,,52.6,-324,80,9,1016.46,49.5,0
"2016-11-17 23:43:46+00",7.4,8.4,,51.9,-321,94,16,1016.47,49.3,0
"2016-11-17 23:48:46+00",9.3,10.3,,51.7,-362,189,22,1016.6,49.2,0
"2016-11-17 23:53:46+00",9.8,9.8,,51.8,-364,239,18,1016.63,49.3,0
"2016-11-17 23:58:46+00",8.4,8.4,,51.6,-291,234,18,1016.67,49.5,0
